FW6138 Weather Reports


time (UTC)temp
C
wind
direction
speed
KPH
gust
KPH
rain 1hr
cm
rain 24hr
cm
rain mn
cm
humidity
%
barometer
mb
20260505201528 20 302 11.3 22.5 0.00 0.00 0.00 60 1015.1
20260505200038 20 296 9.7 24.1 0.00 0.00 0.00 61 1015.2
20260505194532 19 293 11.3 27.4 0.00 0.00 0.00 62 1015.3
20260505193036 19 302 11.3 22.5 0.00 0.00 0.00 63 1015.4
20260505191537 19 297 11.3 22.5 0.00 0.00 0.00 63 1015.5
20260505190029 18 299 11.3 24.1 0.00 0.00 0.00 64 1015.5
20260505180030 18 296 11.3 24.1 0.00 0.00 0.00 66 1015.7
20260505174536 17 297 11.3 25.7 0.00 0.00 0.00 67 1015.7
20260505173036 17 294 11.3 27.4 0.00 0.00 0.00 68 1015.7
20260505171610 17 292 11.3 22.5 0.00 0.00 0.00 69 1015.7
20260505170042 16 298 12.9 24.1 0.00 0.00 0.00 69 1015.7
20260505163035 16 294 11.3 27.4 0.00 0.00 0.00 71 1015.6
20260505161537 16 292 9.7 22.5 0.00 0.00 0.00 71 1015.7
20260505153036 15 293 8.0 17.7 0.00 0.00 0.00 74 1015.6
20260505124530 10 270 3.2 9.7 0.00 0.00 0.00 92 1014.7
20260505123030 10 284 0.0 4.8 0.00 0.00 0.00 92 1014.7
20260505120106 10 158 3.2 8.0 0.00 0.00 0.00 91 1014.5
20260505114608 11 140 3.2 8.0 0.00 0.00 0.00 91 1014.4
20260505113107 11 279 1.6 8.0 0.00 0.00 0.00 92 1014.4
20260505111645 10 215 1.6 6.4 0.00 0.00 0.00 91 1014.2
20260505101537 12 259 0.0 8.0 0.00 0.00 0.00 89 1013.7
20260505100107 11 307 1.6 11.3 0.00 0.00 0.00 89 1013.8
20260505094531 11 180 1.6 6.4 0.00 0.00 0.00 86 1013.6
20260505093108 12 179 0.0 6.4 0.00 0.00 0.00 84 1013.5
20260505090037 14 262 3.2 11.3 0.00 0.00 0.00 84 1013.1
20260505083037 12 268 3.2 8.0 0.00 0.00 0.00 89 1013.1
20260505081530 12 147 0.0 8.0 0.00 0.00 0.00 89 1013.0
20260505080030 12 281 1.6 4.8 0.00 0.00 0.00 88 1012.9
20260505074536 12 258 1.6 4.8 0.00 0.00 0.00 86 1012.8
20260505073111 12 157 0.0 0.0 0.00 0.00 0.00 85 1012.7
20260505071531 13 157 0.0 0.0 0.00 0.00 0.00 82 1012.6
20260505070031 14 157 0.0 6.4 0.00 0.00 0.00 78 1012.5
20260505064528 15 170 0.0 6.4 0.00 0.00 0.00 74 1012.3
20260505063029 16 211 3.2 8.0 0.00 0.00 0.00 73 1012.2
20260505061618 16 213 3.2 8.0 0.00 0.00 0.00 73 1012.2
20260505060055 15 188 4.8 12.9 0.00 0.00 0.00 76 1012.2
20260505050148 18 197 3.2 8.0 0.00 0.00 0.00 62 1011.8
20260505034533 17 224 3.2 8.0 0.00 0.00 0.00 66 1010.8
20260505033037 18 231 3.2 6.4 0.00 0.00 0.00 62 1010.5
20260505031528 20 239 1.6 6.4 0.00 0.00 0.00 58 1010.2
20260505030031 21 267 3.2 11.3 0.00 0.00 0.00 54 1009.9
20260505024530 22 282 3.2 9.7 0.00 0.00 0.00 51 1009.8
20260505021529 23 299 6.4 17.7 0.00 0.00 0.00 49 1009.7
20260505013030 24 296 11.3 30.6 0.00 0.00 0.00 48 1009.5
20260505011531 24 293 11.3 24.1 0.00 0.00 0.00 48 1009.5
20260505010039 25 292 11.3 24.1 0.00 0.00 0.00 48 1009.5
20260505004534 25 294 12.9 27.4 0.00 0.00 0.00 47 1009.5
20260505003037 25 302 12.9 29.0 0.00 0.00 0.00 47 1009.3
20260505001531 25 302 12.9 27.4 0.00 0.00 0.00 46 1009.3
20260504234616 26 298 9.7 17.7 0.00 0.00 0.00 45 1009.2
20260504233030 26 303 11.3 25.7 0.00 0.00 0.00 45 1009.2
20260504231531 26 284 12.9 25.7 0.00 0.00 0.00 45 1009.2
20260504230036 26 283 11.3 25.7 0.00 0.00 0.00 45 1009.2
20260504224530 26 295 11.3 25.7 0.00 0.00 0.00 46 1009.4
20260504221530 26 298 11.3 22.5 0.00 0.00 0.00 44 1009.6
20260504220032 26 295 9.7 22.5 0.00 0.00 0.00 43 1009.8
20260504214531 26 297 9.7 22.5 0.00 0.00 0.00 44 1009.9
20260504213036 26 307 8.0 19.3 0.00 0.00 0.00 44 1010.0
20260504211531 26 322 9.7 20.9 0.00 0.00 0.00 44 1010.2
20260504210031 26 338 8.0 25.7 0.00 0.00 0.00 44 1010.4
20260504204536 26 320 9.7 20.9 0.00 0.00 0.00 44 1010.6
20260504203151 26 336 6.4 16.1 0.00 0.00 0.00 45 1010.7